KE7MWT Weather Reports


Display with metric or nautical units.
time (UTC)temp
F
wind
direction
speed
MPH
gust
MPH
rain 1hr
in
rain 24hr
in
rain mn
in
humidity
%
barometer
mb
20260905101836 81 261 0.0 2.0 0.00 0.00 0.00 53 1015.7
20260905101530 81 261 0.0 2.0 0.00 0.00 0.00 56 1012.3
20260905101326 81 261 0.0 2.0 0.00 0.00 0.00 52 1015.7
20260905100813 81 261 0.0 0.0 0.00 0.00 0.00 53 1015.8
20260905100324 82 261 0.0 0.0 0.00 0.00 0.00 51 1015.8
20260905100024 81 261 0.0 0.0 0.00 0.00 0.00 55 1012.2
20260905095831 82 261 0.0 0.0 0.00 0.00 0.00 52 1015.8
20260905095321 82 261 0.0 0.0 0.00 0.00 0.00 53 1015.7
20260905094828 81 261 0.0 2.0 0.00 0.00 0.00 52 1015.7
20260905094528 81 261 0.0 2.0 0.00 0.00 0.00 57 1012.2
20260905094319 82 261 0.0 2.0 0.00 0.00 0.00 53 1015.8
20260905093826 82 261 0.0 2.0 0.00 0.00 0.00 55 1015.8
20260905093317 81 261 0.0 2.0 0.00 0.00 0.00 55 1015.7
20260905093036 81 261 0.0 2.0 0.00 0.00 0.00 58 1012.2
20260905092823 81 261 0.0 2.0 0.00 0.00 0.00 57 1015.7
20260905092318 82 261 0.0 2.0 0.00 0.00 0.00 58 1015.8
20260905091825 82 261 0.0 0.0 0.00 0.00 0.00 57 1015.8
20260905091532 81 261 0.0 0.0 0.00 0.00 0.00 59 1012.3
20260905091316 82 261 0.0 0.0 0.00 0.00 0.00 54 1015.6
20260905090823 82 261 0.0 0.0 0.00 0.00 0.00 54 1015.6
20260905090335 82 261 0.0 0.0 0.00 0.00 0.00 52 1015.7
20260905090023 82 261 0.0 0.0 0.00 0.00 0.00 56 1012.1
20260905085842 83 261 0.0 0.0 0.00 0.00 0.00 53 1015.7
20260905085332 83 261 0.0 2.0 0.00 0.00 0.00 52 1015.6
20260905084819 82 261 0.0 2.0 0.00 0.00 0.00 53 1015.7
20260905084526 82 261 0.0 2.0 0.00 0.00 0.00 57 1012.2
20260905084330 82 261 0.0 2.0 0.00 0.00 0.00 53 1015.8
20260905083817 82 261 0.0 0.0 0.00 0.00 0.00 53 1015.8
20260905083332 82 261 0.0 0.0 0.00 0.00 0.00 53 1015.8
20260905083036 82 261 0.0 0.0 0.00 0.00 0.00 57 1012.3
20260905082840 82 261 0.0 0.0 0.00 0.00 0.00 53 1015.8
20260905082350 82 261 0.0 0.0 0.00 0.00 0.00 53 1015.8
20260905081816 83 261 0.0 1.0 0.00 0.00 0.00 52 1015.6
20260905081532 82 261 0.0 2.0 0.00 0.00 0.00 56 1012.3
20260905081327 83 261 0.0 2.0 0.00 0.00 0.00 53 1015.7
20260905080814 83 261 0.0 2.0 0.00 0.00 0.00 52 1015.7
20260905080325 83 261 0.0 2.0 0.00 0.00 0.00 53 1015.8
20260905080041 82 261 0.0 2.0 0.00 0.00 0.00 57 1012.4
20260905075832 83 261 0.0 2.0 0.00 0.00 0.00 55 1015.7
20260905075323 83 261 0.0 2.0 0.00 0.00 0.00 54 1015.7
20260905074830 83 261 0.0 2.0 0.00 0.00 0.00 53 1015.7
20260905074522 83 261 0.0 2.0 0.00 0.00 0.00 56 1012.2
20260905074341 83 261 0.0 2.0 0.00 0.00 0.00 52 1015.6
20260905073831 83 261 0.0 2.0 0.00 0.00 0.00 52 1015.7
20260905073322 83 261 0.0 2.0 0.00 0.00 0.00 51 1015.6
20260905073036 83 261 0.0 2.0 0.00 0.00 0.00 53 1012.2
20260905072829 83 261 0.0 2.0 0.00 0.00 0.00 49 1015.6
20260905072320 84 261 0.0 0.0 0.00 0.00 0.00 48 1015.6
20260905071828 84 261 0.0 0.0 0.00 0.00 0.00 47 1015.5
20260905071511 84 261 0.0 0.0 0.00 0.00 0.00 52 1012.1
20260905071339 84 261 0.0 0.0 0.00 0.00 0.00 47 1015.5
20260905070845 84 261 0.0 0.0 0.00 0.00 0.00 49 1015.5
20260905070336 85 261 0.0 2.0 0.00 0.00 0.00 48 1015.6
20260905070017 84 261 0.0 0.0 0.00 0.00 0.00 52 1012.2
20260905065823 85 261 0.0 0.0 0.00 0.00 0.00 48 1015.6
20260905065314 85 261 0.0 2.0 0.00 0.00 0.00 48 1015.5
20260905064822 85 261 0.0 2.0 0.00 0.00 0.00 47 1015.5
20260905064528 84 261 0.0 2.0 0.00 0.00 0.00 50 1012.1
20260905064317 85 261 0.0 0.0 0.00 0.00 0.00 47 1015.5
20260905063825 85 261 0.0 0.0 0.00 0.00 0.00 47 1015.5
20260905063316 85 261 0.0 0.0 0.00 0.00 0.00 46 1015.4
20260905063004 85 261 0.0 0.0 0.00 0.00 0.00 50 1011.9
20260905062823 85 261 0.0 0.0 0.00 0.00 0.00 46 1015.4
20260905062314 85 261 0.0 0.0 0.00 0.00 0.00 47 1015.4
20260905061841 85 261 0.0 0.0 0.00 0.00 0.00 47 1015.4
20260905061508 85 261 0.0 0.0 0.00 0.00 0.00 50 1011.8
20260905061329 86 261 0.0 0.0 0.00 0.00 0.00 47 1015.3
20260905060816 86 261 0.0 0.0 0.00 0.00 0.00 46 1015.3
20260905060327 86 261 0.0 2.0 0.00 0.00 0.00 45 1015.3
20260905060022 86 261 0.0 2.0 0.00 0.00 0.00 48 1011.8
20260905055835 86 261 0.0 2.0 0.00 0.00 0.00 44 1015.2
20260905055324 87 261 0.0 2.0 0.00 0.00 0.00 42 1015.2
20260905054815 87 261 0.0 2.0 0.00 0.00 0.00 41 1015.2
20260905054519 87 261 0.0 2.0 0.00 0.00 0.00 45 1011.7
20260905054326 87 261 0.0 2.0 0.00 0.00 0.00 42 1015.2
20260905053833 87 254 0.0 0.0 0.00 0.00 0.00 42 1015.2
20260905053324 87 254 0.0 0.0 0.00 0.00 0.00 41 1015.2
20260905053030 87 254 0.0 0.0 0.00 0.00 0.00 44 1011.7
20260905052831 88 254 0.0 0.0 0.00 0.00 0.00 41 1015.1
20260905052342 88 254 0.0 0.0 0.00 0.00 0.00 40 1015.1
20260905051829 88 254 0.0 0.0 0.00 0.00 0.00 39 1015.1
20260905051504 88 254 0.0 0.0 0.00 0.00 0.00 42 1011.5
20260905051340 89 254 0.0 0.0 0.00 0.00 0.00 39 1015.1
20260905050826 89 254 0.0 0.0 0.00 0.00 0.00 38 1015.0
20260905050318 90 254 0.0 0.0 0.00 0.00 0.00 37 1015.0
20260905050010 89 254 0.0 2.0 0.00 0.00 0.00 39 1011.6
20260905045825 90 254 0.0 2.0 0.00 0.00 0.00 35 1014.9
20260905045340 91 254 0.0 2.0 0.00 0.00 0.00 34 1014.8
20260905044825 92 254 0.0 2.0 0.00 0.00 0.00 34 1014.9
20260905044518 92 254 0.0 2.0 0.00 0.00 0.00 36 1011.5
20260905044316 92 254 0.0 2.0 0.00 0.00 0.00 32 1014.9
20260905043823 93 254 0.0 2.0 0.00 0.00 0.00 32 1014.8
20260905043333 93 260 1.0 2.0 0.00 0.00 0.00 31 1014.8
20260905043023 93 260 1.0 2.0 0.00 0.00 0.00 35 1011.4
20260905042819 93 270 0.0 2.0 0.00 0.00 0.00 31 1014.8
20260905042331 94 266 0.0 2.0 0.00 0.00 0.00 31 1014.8
20260905041818 94 282 0.0 4.0 0.00 0.00 0.00 31 1014.8
20260905041530 94 282 1.0 4.0 0.00 0.00 0.00 35 1011.4
20260905041329 94 267 1.0 4.0 0.00 0.00 0.00 31 1014.7
20260905040816 94 286 1.0 4.0 0.00 0.00 0.00 30 1014.7
20260905040325 94 282 1.0 4.0 0.00 0.00 0.00 33 1014.6
20260905040018 94 257 1.0 4.0 0.00 0.00 0.00 36 1011.2
20260905035816 94 265 0.0 4.0 0.00 0.00 0.00 33 1014.6
20260905035327 94 238 1.0 2.0 0.00 0.00 0.00 35 1014.6
20260905034814 94 226 1.0 2.0 0.00 0.00 0.00 35 1014.5
20260905034516 94 265 1.0 4.0 0.00 0.00 0.00 38 1011.1
20260905034346 95 263 1.0 4.0 0.00 0.00 0.00 35 1014.5
20260905033832 94 261 2.0 4.0 0.00 0.00 0.00 35 1014.4
20260905033343 94 297 3.0 4.0 0.00 0.00 0.00 36 1014.4
20260905033020 93 254 1.0 4.0 0.00 0.00 0.00 1010.9
20260905032830 93 343 0.0 2.0 0.00 0.00 0.00 39 1014.2
20260905032320 93 325 0.0 2.0 0.00 0.00 0.00 39 1014.2
20260905031828 93 325 0.0 2.0 0.00 0.00 0.00 39 1014.1
20260905031531 93 341 0.0 2.0 0.00 0.00 0.00 43 1010.6
20260905031318 94 341 0.0 2.0 0.00 0.00 0.00 39 1014.0
20260905030830 93 341 0.0 2.0 0.00 0.00 0.00 39 1013.9
20260905030322 93 341 0.0 0.0 0.00 0.00 0.00 37 1013.8
20260905030036 93 341 0.0 0.0 0.00 0.00 0.00 42 1010.3
20260905025829 93 341 0.0 0.0 0.00 0.00 0.00 39 1013.7
20260905025319 93 341 0.0 0.0 0.00 0.00 0.00 39 1013.7
20260905024827 94 341 0.0 0.0 0.00 0.00 0.00 37 1013.5
20260905024526 93 341 0.0 0.0 0.00 0.00 0.00 39 1010.1
20260905024318 94 340 0.0 0.0 0.00 0.00 0.00 36 1013.5
20260905023826 94 341 0.0 0.0 0.00 0.00 0.00 37 1013.5
20260905023316 94 341 0.0 0.0 0.00 0.00 0.00 37 1013.4
20260905023016 93 341 0.0 0.0 0.00 0.00 0.00 40 1009.9
20260905022822 94 341 0.0 2.0 0.00 0.00 0.00 36 1013.4
20260905022333 94 341 0.0 2.0 0.00 0.00 0.00 36 1013.3
20260905021824 94 341 0.0 2.0 0.00 0.00 0.00 36 1013.3
20260905021528 94 341 0.0 2.0 0.00 0.00 0.00 39 1009.8
20260905021316 94 341 0.0 2.0 0.00 0.00 0.00 35 1013.3
20260905020822 95 341 0.0 2.0 0.00 0.00 0.00 34 1013.2
20260905020333 95 341 0.0 2.0 0.00 0.00 0.00 34 1013.3
20260905020051 95 341 0.0 2.0 0.00 0.00 0.00 38 1009.8
20260905015819 96 341 0.0 2.0 0.00 0.34 0.00 34 1013.2
20260905015331 96 341 0.0 2.0 0.00 0.34 0.00 33 1013.2
20260905014818 96 341 0.0 2.0 0.00 0.34 0.00 33 1013.2
20260905014509 96 341 0.0 2.0 0.00 0.00 0.00 35 1009.7
20260905014329 97 341 1.0 2.0 0.00 0.34 0.00 31 1013.2
20260905013816 97 317 0.0 1.0 0.00 0.34 0.00 31 1013.2
20260905013331 98 317 0.0 2.0 0.00 0.34 0.00 30 1013.1
20260905013017 97 317 0.0 2.0 0.00 0.01 0.00 34 1009.7
20260905012819 98 317 0.0 1.0 0.00 0.34 0.00 30 1013.1
20260905012350 98 315 1.0 1.0 0.00 0.34 0.00 30 1013.1
20260905011814 98 348 0.0 2.0 0.00 0.34 0.00 29 1013.0
20260905011519 98 344 0.0 2.0 0.00 0.31 0.00 33 1009.6
20260905011324 98 339 1.0 2.0 0.00 0.34 0.00 29 1013.0
20260905010829 98 342 1.0 2.0 0.00 0.34 0.00 29 1013.0
20260905010339 99 298 1.0 2.0 0.00 0.34 0.00 28 1013.0
20260905010026 98 263 1.0 3.0 0.00 0.34 0.00 32 1009.6
20260905005823 99 260 0.0 3.0 0.00 0.34 0.00 29 1013.0
20260905005332 98 213 0.0 2.0 0.00 0.34 0.00 29 1013.0
20260905004817 99 252 0.0 6.0 0.00 0.34 0.00 29 1013.0
20260905004528 98 247 1.0 6.0 0.00 0.34 0.00 32 1009.6
20260905004326 99 246 2.0 6.0 0.00 0.34 0.00 28 1013.1
20260905003815 99 258 2.0 4.0 0.00 0.34 0.00 27 1013.1
20260905003324 100 229 1.0 5.0 0.00 0.34 0.00 27 1013.1
20260905003009 100 273 2.0 5.0 0.00 0.34 0.00 31 1009.7
20260905002829 101 196 2.0 5.0 0.00 0.34 0.00 27 1013.1
20260905002320 101 196 2.0 6.0 0.00 0.34 0.00 26 1013.1
20260905001846 100 280 3.0 6.0 0.00 0.34 0.00 26 1013.2
20260905001519 100 233 1.0 7.0 0.00 0.34 0.00 30 1009.7
20260905001354 101 194 1.0 7.0 0.00 0.34 0.00 26 1013.1
20260905000818 101 223 2.0 7.0 0.00 0.34 0.00 27 1013.2
20260905000326 101 212 3.0 7.0 0.00 0.34 0.00 26 1013.2
20260905000023 100 234 4.0 8.0 0.00 0.34 0.00 30 1009.8
20260904235832 101 244 4.0 8.0 0.00 0.34 0.00 27 1013.2
20260904235322 101 198 4.0 9.0 0.00 0.34 0.00 26 1013.2
20260904234827 102 213 5.0 9.0 0.00 0.34 0.00 26 1013.1
20260904234528 102 156 2.0 12.0 0.00 0.34 0.00 29 1009.7
20260904234318 102 198 2.0 11.0 0.00 0.34 0.00 26 1013.2
20260904233823 100 160 5.0 11.0 0.00 0.34 0.00 27 1013.2
20260904233332 100 169 1.0 7.0 0.00 0.34 0.00 27 1013.2
20260904233028 99 196 1.0 8.0 0.00 0.34 0.00 32 1009.8
20260904232816 100 191 3.0 7.0 0.00 0.34 0.00 28 1013.3
20260904232325 101 231 2.0 9.0 0.00 0.34 0.00 27 1013.3
20260904231830 101 211 5.0 11.0 0.00 0.34 0.00 26 1013.4
20260904231517 101 340 2.0 11.0 0.00 0.34 0.00 30 1009.9
20260904231339 101 275 4.0 11.0 0.00 0.34 0.00 27 1013.4
20260904230843 101 202 5.0 9.0 0.00 0.34 0.00 26 1013.4
20260904230330 101 179 5.0 8.0 0.00 0.34 0.00 27 1013.5
20260904230020 100 208 1.0 9.0 0.00 0.34 0.00 30 1010.1
20260904225815 101 292 3.0 9.0 0.00 0.34 0.00 27 1013.5
20260904225344 102 200 4.0 9.0 0.00 0.34 0.00 27 1013.6
20260904224827 102 111 2.0 5.0 0.00 0.34 0.00 27 1013.5
20260904224527 102 88 2.0 6.0 0.00 0.34 0.00 30 1010.2
20260904224316 103 164 0.0 6.0 0.00 0.34 0.00 27 1013.7
20260904223822 103 185 1.0 7.0 0.00 0.34 0.00 27 1013.7
20260904223314 103 158 3.0 8.0 0.00 0.34 0.00 28 1013.7
20260904223032 102 173 3.0 8.0 0.00 0.34 0.00 31 1010.3
20260904222819 102 179 4.0 7.0 0.00 0.34 0.00 28 1013.8
20260904222328 102 248 3.0 10.0 0.00 0.34 0.00 28 1013.9
20260904221814 102 212 3.0 10.0 0.00 0.34 0.00 28 1013.9
20260904221537 102 202 4.0 12.0 0.00 0.34 0.00 31 1010.6
20260904221323 102 76 2.0 5.0 0.00 0.34 0.00 28 1014.0
20260904220848 101 322 1.0 5.0 0.00 0.34 0.00 28 1014.1
20260904220317 102 207 3.0 7.0 0.00 0.34 0.00 27 1014.2
20260904220023 102 242 3.0 9.0 0.00 0.34 0.00 31 1010.8
20260904215823 103 231 2.0 9.0 0.00 0.34 0.00 27 1014.3
20260904215332 102 136 2.0 11.0 0.00 0.34 0.00 28 1014.3
20260904214816 102 184 5.0 10.0 0.00 0.34 0.00 28 1014.3
20260904214523 102 220 4.0 10.0 0.00 0.34 0.00 31 1010.9
20260904214330 103 213 5.0 10.0 0.00 0.34 0.00 27 1014.4
20260904213815 102 286 3.0 10.0 0.00 0.34 0.00 27 1014.4
20260904213324 102 246 3.0 10.0 0.00 0.34 0.00 27 1014.5
20260904213010 102 218 5.0 10.0 0.00 0.34 0.00 31 1011.1
20260904212829 102 231 3.0 8.0 0.00 0.34 0.00 27 1014.6
20260904212319 102 193 3.0 9.0 0.00 0.34 0.00 30 1014.7
20260904211826 101 192 3.0 9.0 0.00 0.34 0.00 29 1014.8
20260904211509 100 221 5.0 9.0 0.00 0.34 0.00 32 1011.4
20260904211316 101 238 1.0 6.0 0.00 0.34 0.00 28 1014.8
20260904210824 100 205 3.0 6.0 0.00 0.34 0.00 30 1014.9
20260904210316 101 250 3.0 10.0 0.00 0.34 0.00 30 1015.0
20260904210026 100 193 3.0 9.0 0.00 0.34 0.00 35 1011.5
20260904205843 100 209 2.0 8.0 0.00 0.34 0.00 32 1015.0
20260904205317 100 104 2.0 10.0 0.00 0.34 0.00 32 1015.0
20260904204842 101 182 1.0 4.0 0.00 0.34 0.00 30 1015.1
20260904204500 100 101 1.0 4.0 0.00 0.34 0.00 36 1011.6
20260904204329 100 202 1.0 6.0 0.00 0.34 0.00 32 1015.1
20260904203832 100 257 1.0 6.0 0.00 0.34 0.00 33 1015.2
20260904203322 101 180 2.0 5.0 0.00 0.34 0.00 32 1015.3
20260904203004 100 188 3.0 6.0 0.00 0.34 0.00 36 1011.9
20260904202850 101 113 2.0 6.0 0.00 0.34 0.00 32 1015.3
20260904202339 99 190 3.0 10.0 0.00 0.34 0.00 33 1015.3
20260904201824 99 294 4.0 10.0 0.00 0.34 0.00 33 1015.5
20260904201528 99 233 4.0 10.0 0.00 0.34 0.00 37 1012.2
20260904201315 100 261 3.0 8.0 0.00 0.34 0.00 33 1015.6
20260904200822 100 98 2.0 9.0 0.00 0.34 0.00 33 1015.6
20260904200331 99 221 4.0 9.0 0.00 0.34 0.00 32 1015.8
20260904200018 99 201 3.0 8.0 0.00 0.34 0.00 37 1012.3
20260904195815 99 184 2.0 7.0 0.00 0.34 0.00 36 1015.9
20260904195324 98 196 3.0 6.0 0.00 0.34 0.00 36 1015.9
20260904194833 98 188 2.0 9.0 0.00 0.34 0.00 36 1016.0
20260904194516 98 188 4.0 7.0 0.00 0.34 0.00 39 1012.7
20260904194322 99 187 2.0 6.0 0.00 0.34 0.00 36 1016.1
20260904193826 100 117 1.0 8.0 0.00 0.34 0.00 36 1016.2
20260904193316 99 97 1.0 8.0 0.00 0.34 0.00 37 1016.3
20260904193004 98 193 4.0 9.0 0.00 0.34 0.00 40 1012.8
20260904192821 98 157 2.0 8.0 0.00 0.34 0.00 37 1016.2
20260904192331 97 210 3.0 8.0 0.00 0.34 0.00 36 1016.4
20260904191815 97 350 3.0 5.0 0.00 0.34 0.00 36 1016.4
20260904191505 96 285 2.0 4.0 0.00 0.34 0.00 40 1013.0
20260904191324 97 261 1.0 3.0 0.00 0.34 0.00 36 1016.5
20260904190829 97 151 0.0 5.0 0.00 0.34 0.00 38 1016.6
20260904190323 97 115 2.0 5.0 0.00 0.34 0.00 37 1016.8
20260904190010 96 152 1.0 5.0 0.00 0.34 0.00 41 1013.4
20260904185850 97 119 1.0 7.0 0.00 0.34 0.00 38 1016.8
20260904185336 96 196 2.0 8.0 0.00 0.34 0.00 36 1016.9
20260904184820 95 244 4.0 8.0 0.00 0.34 0.00 39 1016.9
20260904184517 95 200 1.0 12.0 0.00 0.34 0.00 43 1013.4
20260904184329 95 210 1.0 12.0 0.00 0.34 0.00 39 1017.0
20260904183814 96 183 5.0 8.0 0.00 0.34 0.00 40 1017.1
20260904183323 95 126 1.0 7.0 0.00 0.34 0.00 42 1017.1
20260904183027 94 265 3.0 9.0 0.00 0.34 0.00 45 1013.6
20260904182828 95 204 4.0 9.0 0.00 0.34 0.00 41 1017.1
20260904182317 95 209 3.0 9.0 0.00 0.34 0.00 39 1017.2
20260904181823 95 113 1.0 6.0 0.00 0.34 0.00 40 1017.2
20260904181504 94 308 1.0 12.0 0.00 0.34 0.00 45 1013.8
20260904181331 94 184 3.0 12.0 0.00 0.34 0.00 41 1017.3
20260904180820 95 190 5.0 12.0 0.00 0.34 0.00 41 1017.3
20260904180349 94 119 3.0 5.0 0.00 0.34 0.00 42 1017.4
20260904180010 93 232 1.0 12.0 0.00 0.34 0.00 46 1013.8
20260904175833 93 41 1.0 10.0 0.00 0.34 0.00 41 1017.4
20260904175321 93 119 4.0 12.0 0.00 0.34 0.00 43 1017.5
20260904174826 93 157 3.0 8.0 0.00 0.34 0.00 45 1017.5
20260904174509 93 139 2.0 6.0 0.00 0.34 0.00 48 1014.1
20260904174315 94 62 2.0 6.0 0.00 0.34 0.00 46 1017.5
20260904173820 93 115 2.0 7.0 0.00 0.34 0.00 46 1017.5
20260904173329 93 124 2.0 7.0 0.00 0.34 0.00 46 1017.6
20260904173018 92 178 2.0 7.0 0.00 0.34 0.00 49 1014.1
20260904172817 93 159 2.0 7.0 0.00 0.34 0.00 45 1017.5
20260904172326 92 155 3.0 7.0 0.00 0.34 0.00 46 1017.6
20260904171815 93 150 3.0 7.0 0.00 0.34 0.00 47 1017.6
20260904171526 92 109 1.0 7.0 0.00 0.34 0.00 50 1014.1
20260904171344 92 128 2.0 7.0 0.00 0.34 0.00 47 1017.6
20260904170828 91 157 1.0 6.0 0.00 0.34 0.00 47 1017.5
20260904170318 91 148 2.0 6.0 0.00 0.34 0.00 47 1017.6
20260904170004 91 152 2.0 6.0 0.00 0.34 0.00 51 1014.1
20260904165822 92 174 2.0 6.0 0.00 0.34 0.00 49 1017.6
20260904165351 91 158 3.0 6.0 0.00 0.34 0.00 49 1017.5
20260904164814 91 126 1.0 8.0 0.00 0.34 0.00 50 1017.4
20260904164511 91 152 3.0 8.0 0.00 0.34 0.00 52 1014.0
20260904164324 91 136 2.0 5.0 0.00 0.34 0.00 49 1017.4
20260904163829 91 128 2.0 6.0 0.00 0.34 0.00 49 1017.4
20260904163320 90 112 1.0 6.0 0.00 0.34 0.00 51 1017.5
20260904163018 90 115 2.0 6.0 0.00 0.34 0.00 54 1014.0
20260904162825 90 128 3.0 6.0 0.00 0.34 0.00 51 1017.4
20260904162333 90 119 1.0 5.0 0.00 0.34 0.00 52 1017.4
20260904161838 90 93 2.0 8.0 0.00 0.34 0.00 51 1017.4
20260904161529 89 225 2.0 8.0 0.00 0.34 0.00 55 1014.0
20260904161326 90 86 2.0 7.0 0.00 0.34 0.00 52 1017.4
20260904160816 89 147 2.0 7.0 0.00 0.34 0.00 52 1017.4
20260904160326 89 105 2.0 7.0 0.00 0.34 0.00 53 1017.4
20260904160009 89 181 3.0 7.0 0.00 0.34 0.00 56 1014.0
20260904155833 89 106 2.0 4.0 0.00 0.34 0.00 53 1017.4
20260904155324 89 115 1.0 4.0 0.00 0.34 0.00 53 1017.4
20260904154830 89 96 2.0 6.0 0.00 0.34 0.00 53 1017.3
20260904154508 88 159 1.0 4.0 0.00 0.34 0.00 58 1013.9
20260904154320 89 155 2.0 6.0 0.00 0.34 0.00 54 1017.3
20260904153827 89 144 2.0 6.0 0.00 0.34 0.00 54 1017.2
20260904153338 89 179 2.0 5.0 0.00 0.34 0.00 53 1017.2
20260904153022 88 102 1.0 6.0 0.00 0.34 0.00 57 1013.8
20260904152824 89 125 1.0 6.0 0.00 0.34 0.00 53 1017.2
20260904152335 88 121 2.0 7.0 0.00 0.34 0.00 53 1017.1
20260904151841 88 211 1.0 6.0 0.00 0.34 0.00 55 1017.2
20260904151520 87 116 1.0 6.0 0.00 0.34 0.00 59 1013.7
20260904151330 88 113 1.0 6.0 0.00 0.34 0.00 57 1017.2
20260904150817 87 109 1.0 4.0 0.00 0.34 0.00 56 1017.1
20260904150329 87 137 1.0 6.0 0.00 0.34 0.00 56 1017.1
20260904150035 86 132 2.0 7.0 0.00 0.34 0.00 59 1013.6
20260904145820 87 148 2.0 6.0 0.00 0.34 0.00 56 1017.0
20260904145330 87 104 2.0 3.0 0.00 0.34 0.00 56 1017.1
20260904144817 87 167 1.0 4.0 0.00 0.34 0.00 56 1017.0
20260904144508 86 141 2.0 4.0 0.00 0.34 0.00 60 1013.6
20260904144348 86 128 2.0 4.0 0.00 0.34 0.00 56 1017.0
20260904143814 86 140 1.0 4.0 0.00 0.34 0.00 56 1017.0
20260904143324 86 140 1.0 4.0 0.00 0.34 0.00 57 1016.9
20260904143011 85 143 1.0 4.0 0.00 0.34 0.00 61 1013.4
20260904142832 86 140 1.0 4.0 0.00 0.34 0.00 58 1016.9
20260904142324 85 144 1.0 4.0 0.00 0.34 0.00 58 1016.8
20260904141831 85 138 1.0 3.0 0.00 0.34 0.00 59 1016.8
20260904141517 84 124 1.0 3.0 0.00 0.34 0.00 62 1013.3
20260904141341 85 128 1.0 3.0 0.00 0.34 0.00 59 1016.8
20260904140828 84 125 1.0 2.0 0.00 0.34 0.00 60 1016.7
20260904140318 84 123 1.0 2.0 0.00 0.34 0.00 60 1016.6
20260904140026 83 158 1.0 1.0 0.00 0.34 0.00 64 1013.1
20260904135827 84 115 1.0 1.0 0.00 0.34 0.00 61 1016.5
20260904135322 84 139 0.0 3.0 0.00 0.34 0.00 61 1016.4
20260904134829 83 149 1.0 3.0 0.00 0.34 0.00 61 1016.4
20260904134534 83 133 1.0 2.0 0.00 0.34 0.00 65 1012.9
20260904134320 83 147 1.0 1.0 0.00 0.34 0.00 61 1016.4
20260904133829 83 138 0.0 1.0 0.00 0.34 0.00 62 1016.3
20260904133340 83 138 0.0 1.0 0.00 0.34 0.00 63 1016.2
20260904133010 82 140 0.0 2.0 0.00 0.34 0.00 66 1012.8
20260904132826 83 140 0.0 2.0 0.00 0.34 0.00 62 1016.1
20260904132338 83 144 1.0 3.0 0.00 0.34 0.00 62 1016.0
20260904131825 83 129 1.0 3.0 0.00 0.34 0.00 62 1015.9
20260904131517 82 159 1.0 3.0 0.00 0.34 0.00 65 1012.4
20260904131317 83 125 1.0 2.0 0.00 0.34 0.00 62 1015.8
20260904130846 83 113 1.0 3.0 0.00 0.34 0.00 62 1015.8
20260904130338 83 130 1.0 3.0 0.00 0.34 0.00 62 1015.8
20260904130024 82 118 1.0 2.0 0.00 0.34 0.00 66 1012.2
20260904125845 83 137 0.0 2.0 0.00 0.34 0.00 62 1015.7
20260904125334 83 120 1.0 2.0 0.00 0.34 0.00 62 1015.6
20260904124825 83 123 1.0 2.0 0.00 0.34 0.00 61 1015.6
20260904124525 82 148 1.0 4.0 0.00 0.34 0.00 65 1012.1
20260904124316 83 94 1.0 4.0 0.00 0.34 0.00 61 1015.5
20260904123825 83 88 1.0 4.0 0.00 0.34 0.00 61 1015.5
20260904123316 83 96 1.0 2.0 0.00 0.34 0.00 61 1015.4
20260904123030 83 82 0.0 2.0 0.00 0.34 0.00 64 1011.8
20260904122845 84 86 1.0 2.0 0.00 0.34 0.00 60 1015.3
20260904122315 83 107 1.0 4.0 0.00 0.34 0.00 60 1015.3
20260904121821 83 110 0.0 3.0 0.00 0.34 0.00 60 1015.3
20260904121513 83 115 1.0 3.0 0.00 0.34 0.00 64 1011.7
20260904121313 83 145 1.0 3.0 0.00 0.34 0.00 60 1015.2
20260904120820 83 127 1.0 3.0 0.00 0.34 0.00 60 1015.2
20260904120332 84 128 1.0 3.0 0.00 0.34 0.00 59 1015.2
20260904120019 83 119 0.0 3.0 0.00 0.34 0.00 63 1011.8
20260904115824 83 119 0.0 3.0 0.00 0.34 0.00 60 1015.2
20260904115315 83 150 1.0 1.0 0.00 0.34 0.00 60 1015.1
20260904114822 83 157 1.0 2.0 0.00 0.34 0.00 60 1015.1
20260904114526 83 145 0.0 2.0 0.00 0.34 0.00 63 1011.6
20260904114313 83 157 0.0 2.0 0.00 0.34 0.00 60 1015.1
20260904113821 83 125 1.0 2.0 0.00 0.34 0.00 60 1015.1
20260904113313 83 157 0.0 2.0 0.00 0.34 0.00 60 1015.1
20260904113028 82 157 0.0 2.0 0.00 0.34 0.00 64 1011.6
20260904112840 83 157 0.0 2.0 0.00 0.34 0.00 61 1015.1
20260904112331 82 175 0.0 2.0 0.00 0.34 0.00 61 1015.1
20260904111819 82 178 0.0 2.0 0.00 0.34 0.00 63 1015.0
20260904111512 81 84 0.0 2.0 0.00 0.34 0.00 68 1011.6
20260904111314 81 84 0.0 2.0 0.00 0.34 0.00 66 1015.1
20260904110822 81 84 0.0 2.0 0.00 0.34 0.00 65 1015.1
20260904110315 81 84 0.0 2.0 0.00 0.34 0.00 65 1015.1
20260904110017 81 84 0.0 2.0 0.00 0.34 0.00 68 1011.7
20260904105824 81 84 0.0 2.0 0.00 0.34 0.00 64 1015.1
20260904105315 81 84 0.0 0.0 0.00 0.34 0.00 64 1015.1
20260904104823 82 84 0.0 0.0 0.00 0.34 0.00 64 1015.0
20260904104524 81 84 0.0 0.0 0.00 0.34 0.00 67 1011.6
20260904104334 82 84 0.0 0.0 0.00 0.34 0.00 64 1015.0
20260904103821 81 84 0.0 0.0 0.00 0.34 0.00 65 1014.9
20260904103353 81 84 0.0 0.0 0.00 0.34 0.00 64 1014.9
20260904103036 81 84 0.0 2.0 0.00 0.34 0.00 68 1011.5
20260904102821 82 84 0.0 2.0 0.00 0.34 0.00 64 1014.9
20260904102316 82 84 0.0 2.0 0.00 0.34 0.00 63 1014.9